This is the latest recevied weather packets stored in our database for station/object K3PPP. If no packets are shown the sender has not sent any weather packets the latest 10 day(s).
| Time | Temp. | Humidity | Pressure | Rain* | Wind** | Luminosity | Snow |
|---|---|---|---|---|---|---|---|
| 1778244078 | 8.33° C | 61% | 1014.5 hPa | 0 mm | - | 376 W/m² | - |
| 1778243776 | 7.78° C | 61% | 1014.3 hPa | 0 mm | - | 250 W/m² | - |
| 1778243473 | 7.78° C | 62% | 1014.3 hPa | 0 mm | - | 278 W/m² | - |
| 1778243169 | 7.78° C | 64% | 1014.4 hPa | 0 mm | - | 266 W/m² | - |
| 1778242867 | 6.67° C | 65% | 1014 hPa | 0 mm | - | 248 W/m² | - |
| 1778242565 | 6.67° C | 66% | 1014.3 hPa | 0 mm | - | 209 W/m² | - |
| 1778242263 | 6.67° C | 67% | 1014.2 hPa | 0 mm | - | 189 W/m² | - |
| 1778241960 | 6.11° C | 67% | 1014.2 hPa | 0 mm | - | 171 W/m² | - |
| 1778241658 | 6.11° C | 69% | 1014.2 hPa | 0 mm | - | 160 W/m² | - |
| 1778241355 | 5.56° C | 70% | 1014.2 hPa | 0 mm | - | 148 W/m² | - |
| 1778241052 | 5° C | 73% | 1014.2 hPa | 0 mm | - | 108 W/m² | - |
| 1778240749 | 5° C | 74% | 1013.9 hPa | 0 mm | - | 95 W/m² | - |
| 1778240445 | 5° C | 75% | 1014 hPa | 0 mm | - | 71 W/m² | - |
| 1778240143 | 4.44° C | 75% | 1014 hPa | 0 mm | - | 59 W/m² | - |
| 1778239841 | 4.44° C | 75% | 1013.7 hPa | 0 mm | - | 73 W/m² | - |
| 1778239537 | 4.44° C | 76% | 1013.8 hPa | 0 mm | - | 69 W/m² | - |
| 1778239233 | 3.89° C | 76% | 1013.8 hPa | 0 mm | - | 57 W/m² | - |
| 1778238931 | 3.89° C | 75% | 1013.6 hPa | 0 mm | - | 47 W/m² | - |
| 1778238627 | 3.89° C | 76% | 1013.7 hPa | 0 mm | - | 50 W/m² | - |
| 1778238326 | 3.89° C | 75% | 1013.8 hPa | 0 mm | - | 35 W/m² | - |
| 1778238021 | 3.33° C | 77% | 1013.7 hPa | 0 mm | - | 26 W/m² | - |
| 1778237716 | 3.33° C | 77% | 1013.6 hPa | 0 mm | - | 31 W/m² | - |
| 1778237414 | 3.33° C | 77% | 1013.5 hPa | 0 mm | - | 29 W/m² | - |
| 1778237112 | 2.78° C | 78% | 1013.8 hPa | 0 mm | - | 23 W/m² | - |
| 1778236808 | 2.22° C | 80% | 1013.6 hPa | 0 mm | - | 19 W/m² | - |
* Rain latest hour (hover to see other rain measurements)
** Current wind speed in m/s (hover to see current wind gust speed)